Regional Weather Roundup
Issued by NWS

Home | Current Version | Previous Version | Graphics & Text | Print | Product List | Glossary Off
Versions: 1 2 3 4 5 6 7 8 9 10 11 12 13 14 15 16 17 18 19 20 21 22 23 24 25 26 27 28 29 30 31 32 33 34 35 36 37 38 39 40 41 42 43 44 45 46 47 48 49 50

589
ASUS43 KTOP 011708
RWRKS

WEATHER ROUNDUP FOR KANSAS
NATIONAL WEATHER SERVICE GOODLAND KS
1200 PM CDT SAT OCT 01 2016

NOTE:  "FAIR" INDICATES FEW OR NO CLOUDS BELOW 12,000 FEET WITH NO
SIGNIFICANT WEATHER AND/OR OBSTRUCTIONS TO VISIBILITY.

KSZ001>006-013>018-027>032-041>047-011800-
NORTHWEST KANSAS

CITY           SKY/WX    TMP DP  RH WIND       PRES   REMARKS
GOODLAND       SUNNY     67  48  50 SE8       30.10F
HAYS           CLOUDY    72  45  37 SE12      30.11F
HILL CITY      MOSUNNY   68  49  50 SE9       30.12F
RUSSELL        CLOUDY    70  48  45 SE10G16   30.11F
$$

KSZ061>065-074>080-084>089-011800-
SOUTHWEST KANSAS

CITY           SKY/WX    TMP DP  RH WIND       PRES   REMARKS
DODGE CITY     SUNNY     72  49  44 S14       30.09F
ELKHART          N/A     74  53  48 MISG        N/A
GARDEN CITY    CLOUDY    71  51  49 SE12      30.07F
GREAT BEND     CLOUDY    72  46  40 S9        30.11F
LIBERAL        CLOUDY    70  52  52 S9        30.09F
PRATT          MOSUNNY   69  45  42 S12       30.11F
$$

KSZ066>073-081>083-090>101-011800-
SOUTHEAST KANSAS

CITY           SKY/WX    TMP DP  RH WIND       PRES   REMARKS
CHANUTE        SUNNY     70  50  49 CALM      30.12F
COFFEYVILLE    SUNNY     73  51  46 CALM      30.12F
HUTCHINSON     SUNNY     72  50  45 S6        30.12F
MEDICINE LODGE   N/A     71  49  45 S6        30.11F
NEWTON         SUNNY     71  50  47 SE6       30.14F
PARSONS        SUNNY     74  52  46 VRB3      30.12F
WICHITA INTL   MOSUNNY   71  51  49 S7        30.12F
WICHITA JABRA  SUNNY     71  52  50 S6        30.12F
WICHITA MCCONL SUNNY     72  51  48 S5        30.12F
WINFIELD       SUNNY     73  51  46 SE8       30.13F
$$

KSZ007>012-019>026-033>040-048>060-102>105-011800-
NORTHEAST KANSAS

CITY           SKY/WX    TMP DP  RH WIND       PRES   REMARKS
CONCORDIA      SUNNY     70  51  51 NE5       30.13F
EMPORIA        SUNNY     69  53  56 CALM      30.13F
LAWRENCE       PTSUNNY   67  57  70 N3        30.12F
MANHATTAN      SUNNY     67  55  65 E3        30.13F
MARYSVILLE     MOSUNNY   66  55  68 CALM      30.13F
OLATHE IND     PTSUNNY   66  56  70 NW5       30.13F
OLATHE EXE     CLOUDY    65  55  70 VRB6      30.13S
SALINA         SUNNY     72  49  44 E5        30.13F
TOPEKA BILLARD MOSUNNY   68  55  63 CALM      30.13S
TOPEKA FORBES  MOSUNNY   67  56  67 CALM      30.13F
$$




USA.gov is the U.S. government's official web portal to all federal, state and local government web resources and services.